Location: Observatory
(52.1446°N, 0.4624°W)
Time: 18:46:48
(UTC+00:00)

ISS - Pass Details

Date: 01 December 2021
Orbit: 417 x 422 km, 51.6° (Epoch: 06 December)

Event Time Altitude Azimuth Distance (km) Brightness Sun altitude
Rises 17:40:59 0° 277° (W) 2,379 1.4 -15.6°
Reaches altitude 10° 17:43:06 10° 275° (W) 1,513 0.2 -16.0°
Maximum altitude 17:46:29 74° 190° (S) 444 -3.7 -16.5°
Enters shadow 17:47:41 37° 114° (ESE) 675 -3.1 -16.6°
